Temp
19 16 15 15 15 15 16 15 15 15 15 15 14 14 14 15 16 17 17 17 17 15 15 16 15 16 16 12 10 10 10 10 10 10 9 9 9 9 8 8 8 8 8 8 8 8 8 8 7 7 7 7 6 6 6 6 6 6 6 6 6 6 5 5 5 5 4 4 4 4 4 3 3 4 4 4 5 5 5 5 5 5 5 5 5 6
18 15 15 16 16 16 16 16 16 15 15 15 15 14 15 16 15 16 16 17 17 15 14 15 15 15 17 14 11 10 10 10 10 10 9 9 8 8 8 8 8 8 8 8 8 8 8 7 7 7 6 6 6 6 6 6 6 6 6 5 5 5 5 5 5 5 4 4 4 4 3 3 3 3 3 4 4 4 4 5 5 5 5 5 5 5
17 15 16 16 16 16 16 16 16 15 15 16 16 15 15 15 14 15 16 16 16 15 14 15 15 15 17 15 11 10 10 10 10 10 9 8 8 8 8 8 7 7 7 7 7 7 7 7 7 6 6 6 6 5 5 6 5 5 5 5 5 5 5 5 5 5 4 4 4 4 4 3 3 3 3 3 3 3 4 4 5 5 5 5 5 5
16 16 16 16 15 15 16 17 15 14 14 15 16 15 14 14 13 13 14 15 15 15 14 15 14 14 16 14 11 11 11 10 10 9 8 8 8 8 7 8 7 7 7 7 7 7 7 6 6 6 6 6 5 5 5 5 5 5 5 5 5 5 5 5 5 5 5 4 4 4 4 4 3 3 3 2 2 2 3 4 4 4 4 4 4 4
16 16 16 15 15 16 16 16 15 13 14 15 15 14 13 14 13 13 13 14 14 15 15 14 13 14 15 13 10 11 11 9 8 8 8 8 8 8 8 8 7 7 6 6 6 6 6 6 6 6 6 5 5 5 5 5 5 5 5 5 4 4 5 5 5 5 4 4 4 4 4 4 3 3 3 2 2 2 2 3 3 3 3 3 3 4
16 16 16 15 16 16 16 15 15 13 13 14 14 14 14 13 13 13 13 13 13 14 15 14 12 13 15 14 11 10 9 8 8 8 8 8 8 8 7 7 7 6 6 6 6 5 5 6 5 5 5 5 5 5 5 5 5 5 4 4 4 4 4 4 4 4 4 3 3 3 3 3 3 3 3 3 2 2 2 2 2 2 2 2 3 3
16 16 16 16 16 16 15 14 15 14 12 13 14 14 14 13 12 12 13 12 12 12 15 15 13 12 14 15 12 9 8 8 8 8 8 8 7 7 7 7 6 6 6 6 5 5 5 5 5 5 5 5 5 5 5 5 4 4 4 4 4 4 3 3 3 3 3 3 3 3 3 3 3 3 3 3 3 3 2 2 2 2 2 2 2 2
16 16 15 15 16 15 14 14 14 14 12 13 15 15 14 13 12 12 12 12 12 13 14 15 14 12 13 14 11 9 8 8 7 8 8 7 7 6 6 6 6 6 6 5 5 5 5 5 5 5 5 5 5 5 4 4 4 4 4 4 3 3 3 2 2 3 3 3 3 2 2 2 2 2 3 3 3 3 2 2 2 2 2 2 2 2
15 15 14 14 15 14 13 14 14 14 13 13 15 14 13 13 13 13 12 12 13 13 12 14 14 11 11 13 11 9 8 8 7 7 7 6 6 6 6 6 6 6 6 5 5 5 5 4 4 4 4 4 4 4 3 3 3 3 3 3 3 2 2 2 2 2 2 2 2 2 2 2 2 2 2 2 2 2 2 2 2 2 2 1 1 1
15 14 13 13 14 13 13 14 14 14 13 14 15 14 14 13 13 13 13 13 13 12 12 12 13 10 10 12 11 9 9 7 7 7 6 6 6 6 6 5 6 6 6 5 5 5 4 4 4 4 4 3 3 3 3 3 3 3 3 3 2 2 1 2 2 2 2 2 2 2 2 1 2 2 2 2 2 2 2 2 2 2 2 1 1 1
13 12 13 13 13 13 14 14 15 15 14 14 14 13 13 13 14 14 14 14 12 12 12 12 12 10 9 9 8 7 7 5 5 5 5 5 6 5 6 5 5 5 5 5 5 4 4 4 4 4 3 3 3 3 2 2 2 2 2 1 1 1 0 1 1 2 1 1 1 1 1 1 1 1 1 1 2 2 2 2 2 2 1 1 1 1
14 13 13 13 13 14 14 14 15 15 15 14 13 13 12 11 13 13 13 12 10 10 12 12 11 10 9 9 6 5 5 5 5 5 4 5 5 5 5 5 5 5 5 5 4 4 3 3 3 3 3 2 2 2 2 2 1 1 0 0 0 -0 -1 -0 1 1 1 0 0 0 1 0 0 0 0 1 1 1 1 1 1 1 1 1 1 1
15 14 14 13 13 14 14 13 14 14 14 13 12 12 10 9 10 9 9 10 9 9 11 11 11 9 9 10 7 5 5 5 5 5 5 5 5 5 5 5 5 4 4 4 4 3 3 3 3 2 2 2 2 2 2 1 0 -0 -0 -1 -1 -1 -1 -0 0 0 -0 -0 -0 -0 -0 0 0 -0 -0 -0 0 0 1 1 1 1 1 1 1 1
15 14 14 14 13 14 14 12 12 12 12 12 11 11 9 8 7 7 7 8 8 9 10 11 10 9 10 9 7 6 6 5 6 6 6 6 5 5 4 4 4 4 3 3 3 3 3 3 3 2 2 1 1 1 1 0 -1 -1 -1 -1 -1 -1 -0 0 -0 -1 -1 -1 -1 -1 -1 -0 -0 -0 -0 -1 -1 -0 0 0 0 0 0 0 0 0
13 13 14 14 14 14 14 12 12 11 11 11 12 11 10 8 7 6 7 7 7 8 9 10 9 8 9 9 7 7 7 6 6 7 6 6 5 4 4 4 3 3 3 3 3 3 3 3 2 2 1 1 1 1 0 -1 -1 -1 -1 -1 -0 -0 0 -0 -1 -1 -2 -1 -1 -1 -1 -1 -0 -0 -0 -1 -1 -1 -1 -0 -0 -0 -0 0 0 0
12 13 15 14 14 14 13 12 12 11 11 11 12 11 9 9 8 7 7 7 7 7 7 8 9 9 10 9 7 6 7 7 7 6 5 5 4 4 3 3 3 3 3 3 3 3 2 2 2 2 1 1 1 0 -1 -1 -1 -1 -1 -1 -1 -1 -1 -1 -2 -2 -2 -2 -1 -1 -1 -1 -1 -1 -1 -1 -1 -2 -2 -1 -1 -1 -0 -0 -0 0
11 12 14 14 13 13 13 12 13 11 11 11 11 9 9 9 8 7 7 8 7 6 6 8 8 8 9 8 6 6 7 7 6 5 4 4 3 3 3 3 2 2 2 2 2 2 2 2 2 2 1 1 0 -0 -1 -1 -1 -1 -1 -1 -1 -2 -2 -2 -2 -2 -3 -3 -2 -2 -1 -1 -1 -1 -1 -2 -2 -2 -2 -2 -2 -2 -1 -0 -0 -0
10 10 12 13 13 13 12 12 12 11 11 11 9 9 9 9 9 8 6 6 5 4 5 7 6 6 6 6 6 7 6 6 5 4 4 3 3 2 2 2 2 2 2 2 2 2 2 2 2 2 1 0 -0 -1 -1 -1 -1 -1 -2 -2 -2 -2 -2 -3 -3 -3 -4 -3 -3 -3 -3 -2 -2 -2 -2 -3 -3 -2 -3 -3 -2 -2 -1 -0 -0 -0
10 9 11 14 14 13 12 11 11 11 11 11 10 9 9 7 7 7 6 4 4 4 4 5 5 5 5 6 6 5 4 4 4 4 3 2 2 2 2 2 2 2 2 1 1 1 1 1 1 1 1 -0 -0 -1 -1 -1 -1 -1 -2 -2 -2 -3 -3 -3 -4 -4 -4 -4 -4 -4 -4 -4 -3 -3 -4 -4 -3 -3 -3 -3 -3 -2 -2 -1 -1 -0
10 9 10 13 14 13 12 12 11 10 10 11 10 9 9 7 6 6 6 5 4 3 3 3 3 4 6 6 5 4 4 3 3 3 2 2 2 1 1 1 1 1 1 1 1 1 1 1 1 1 0 -0 -1 -1 -1 -1 -1 -2 -2 -3 -3 -3 -3 -4 -4 -4 -4 -4 -4 -4 -4 -4 -4 -4 -4 -4 -3 -3 -3 -3 -3 -3 -2 -1 -1 -0
10 9 10 12 13 13 12 11 11 10 10 9 9 8 7 7 7 6 6 6 5 3 2 2 2 4 6 6 4 4 4 3 3 2 2 1 1 1 1 1 1 1 0 0 0 0 0 0 1 0 -0 -1 -1 -1 -1 -1 -1 -2 -3 -3 -3 -3 -4 -4 -4 -4 -5 -5 -5 -5 -5 -5 -5 -5 -4 -4 -4 -3 -3 -3 -3 -3 -2 -2 -1 -1
9 9 9 9 11 12 12 11 10 10 9 9 8 8 7 6 6 5 5 6 5 3 2 2 1 3 5 5 4 4 3 3 2 2 1 1 1 1 1 1 0 0 0 0 0 0 0 0 0 -0 -1 -1 -1 -1 -1 -1 -2 -2 -3 -3 -4 -4 -4 -4 -5 -5 -5 -5 -5 -5 -5 -5 -6 -6 -6 -5 -4 -4 -3 -3 -3 -3 -3 -2 -1 -1
7 7 8 8 10 12 11 9 9 10 9 8 8 8 7 6 5 4 3 4 4 3 3 2 1 2 5 5 4 4 3 2 2 1 0 0 0 0 0 0 -0 -0 -0 -0 -0 -0 -0 -0 -0 -1 -1 -1 -1 -1 -1 -2 -2 -3 -3 -4 -4 -4 -4 -4 -5 -5 -5 -5 -6 -6 -6 -6 -7 -7 -7 -6 -5 -4 -4 -3 -3 -3 -3 -3 -2 -2
6 7 8 9 10 11 10 9 9 9 8 8 8 7 6 6 5 4 4 4 3 2 2 1 0 2 5 5 4 3 3 2 1 1 0 -0 -0 -0 -0 -1 -1 -1 -1 -1 -1 -0 -0 -1 -1 -1 -1 -1 -1 -2 -2 -2 -2 -3 -4 -4 -4 -4 -4 -5 -5 -5 -6 -6 -6 -6 -6 -7 -7 -7 -7 -6 -5 -5 -4 -3 -3 -3 -3 -3 -2 -2
7 9 10 8 8 8 8 8 8 8 8 8 8 6 5 5 4 4 4 3 1 2 2 0 -0 2 4 4 3 3 2 1 0 0 -0 -1 -1 -1 -1 -1 -1 -1 -1 -1 -1 -1 -1 -1 -1 -1 -2 -2 -2 -2 -2 -3 -3 -3 -4 -4 -4 -4 -5 -5 -6 -6 -6 -6 -7 -7 -7 -7 -7 -7 -7 -6 -6 -5 -4 -3 -3 -3 -2 -2 -2 -2
6 9 9 7 6 5 6 7 7 8 8 8 9 7 4 3 3 3 3 1 0 1 1 0 -0 1 3 3 2 1 1 -0 -1 -1 -1 -1 -1 -1 -2 -2 -2 -2 -2 -2 -1 -1 -1 -2 -2 -2 -2 -2 -3 -3 -3 -4 -4 -4 -4 -4 -5 -5 -6 -6 -7 -7 -7 -7 -8 -8 -8 -8 -7 -7 -7 -7 -6 -6 -5 -5 -4 -4 -3 -3 -2 -2
6 8 7 6 6 6 6 7 7 7 7 7 8 7 5 3 3 2 2 1 1 1 0 1 1 1 1 1 1 0 -1 -1 -1 -1 -2 -2 -2 -2 -2 -2 -2 -2 -2 -2 -2 -2 -2 -2 -3 -3 -3 -3 -4 -4 -4 -4 -5 -5 -5 -5 -6 -6 -7 -7 -7 -7 -8 -8 -8 -8 -8 -8 -8 -8 -7 -7 -6 -6 -6 -6 -5 -5 -5 -4 -4 -3
6 7 6 5 6 6 6 6 7 7 7 7 7 7 6 4 2 2 2 2 2 0 -1 1 1 -0 -0 0 0 -1 -1 -2 -2 -2 -2 -2 -2 -2 -2 -2 -3 -2 -2 -2 -3 -3 -3 -4 -4 -4 -4 -4 -4 -5 -5 -5 -6 -6 -6 -7 -7 -7 -7 -7 -8 -8 -9 -9 -9 -9 -8 -8 -8 -8 -7 -7 -6 -6 -6 -6 -6 -6 -5 -5 -4 -4
5 6 6 5 6 6 5 6 7 7 7 7 7 6 6 5 3 3 2 2 2 0 -1 1 1 -1 -1 -0 -1 -1 -2 -2 -2 -2 -2 -3 -3 -3 -3 -3 -3 -3 -3 -3 -4 -4 -5 -5 -5 -5 -5 -5 -5 -6 -6 -7 -7 -7 -8 -8 -8 -8 -8 -8 -9 -10 -10 -10 -9 -9 -9 -8 -8 -8 -8 -7 -7 -7 -6 -6 -6 -6 -6 -6 -5 -5
5 6 7 5 4 5 5 6 7 7 7 6 6 6 5 4 4 3 2 2 2 1 0 0 -0 -1 -0 -0 -1 -1 -2 -2 -2 -2 -3 -3 -3 -3 -3 -3 -3 -4 -4 -5 -5 -5 -5 -5 -5 -5 -5 -6 -6 -7 -8 -8 -8 -8 -9 -9 -8 -9 -9 -9 -10 -10 -10 -10 -10 -9 -9 -9 -9 -8 -8 -8 -7 -7 -7 -7 -7 -7 -6 -6 -6 -5
6 6 6 5 4 4 6 7 7 6 6 5 6 6 5 3 2 2 1 1 1 -0 -0 -0 -1 -1 -0 -1 -1 -2 -2 -2 -3 -3 -3 -3 -4 -4 -4 -4 -4 -5 -5 -5 -6 -6 -6 -6 -6 -6 -6 -7 -8 -8 -9 -9 -9 -9 -9 -9 -10 -10 -10 -10 -11 -11 -11 -11 -10 -10 -10 -10 -10 -9 -9 -9 -8 -8 -7 -7 -7 -8 -8 -7 -7 -6
5 5 5 5 4 4 6 7 6 6 6 5 5 4 3 2 1 1 1 1 -0 -1 -1 -1 -2 -2 -1 -1 -2 -2 -2 -3 -3 -3 -4 -4 -4 -4 -4 -4 -5 -5 -6 -6 -6 -6 -6 -6 -7 -7 -8 -9 -9 -9 -10 -10 -10 -10 -10 -11 -11 -11 -11 -11 -11 -12 -12 -11 -11 -11 -11 -11 -10 -10 -9 -9 -9 -8 -8 -8 -8 -9 -8 -8 -8 -7
5 4 4 5 3 4 6 6 5 5 5 5 3 2 1 1 1 0 0 0 0 -0 -1 -2 -3 -2 -2 -2 -3 -3 -3 -3 -4 -4 -4 -4 -4 -4 -4 -5 -5 -6 -6 -6 -6 -7 -7 -7 -8 -8 -9 -9 -10 -10 -10 -10 -11 -11 -12 -12 -12 -12 -12 -12 -12 -13 -13 -12 -12 -12 -11 -11 -10 -10 -10 -10 -10 -9 -9 -9 -9 -9 -9 -9 -8 -7
5 4 4 4 3 3 4 5 5 4 4 3 3 2 1 1 0 -0 -1 -0 0 0 -1 -2 -2 -2 -2 -3 -3 -3 -3 -4 -4 -4 -4 -4 -4 -4 -5 -5 -5 -6 -6 -6 -7 -7 -7 -7 -8 -9 -10 -10 -11 -11 -11 -11 -12 -12 -13 -12 -12 -12 -13 -13 -13 -13 -13 -13 -13 -12 -11 -11 -11 -11 -11 -11 -11 -10 -10 -10 -10 -10 -10 -9 -8 -7
4 4 4 4 3 3 4 4 2 3 4 3 2 2 1 1 0 -0 -0 -0 0 -0 -1 -2 -2 -2 -3 -3 -3 -3 -3 -4 -4 -4 -4 -4 -4 -4 -5 -5 -6 -6 -6 -7 -7 -7 -8 -8 -9 -10 -10 -11 -11 -12 -12 -12 -13 -13 -13 -13 -13 -13 -13 -14 -14 -14 -14 -13 -13 -12 -12 -11 -12 -12 -12 -12 -12 -11 -11 -11 -11 -11 -10 -9 -8 -7
4 4 4 4 4 3 3 2 1 2 5 4 2 2 1 0 0 -1 -2 -1 -0 -1 -2 -3 -3 -2 -3 -3 -3 -3 -3 -4 -4 -4 -4 -4 -4 -4 -5 -5 -6 -6 -6 -7 -7 -8 -8 -9 -10 -10 -11 -12 -12 -12 -12 -13 -13 -13 -13 -13 -14 -14 -14 -14 -14 -14 -14 -13 -13 -13 -12 -12 -12 -12 -13 -13 -12 -12 -12 -11 -11 -11 -11 -10 -9 -7
4 4 4 3 3 3 2 2 2 3 4 3 1 1 1 -0 -0 -1 -3 -2 -1 -1 -2 -3 -3 -3 -3 -3 -3 -3 -4 -4 -5 -4 -4 -4 -4 -4 -5 -5 -6 -6 -6 -7 -7 -8 -9 -10 -11 -11 -12 -12 -13 -13 -13 -13 -14 -14 -14 -14 -14 -14 -14 -14 -14 -14 -14 -14 -14 -13 -13 -13 -13 -13 -13 -13 -13 -13 -12 -12 -12 -12 -11 -10 -9 -8
4 4 3 2 3 4 2 1 2 2 3 2 1 1 2 0 0 -0 -2 -3 -1 -1 -2 -3 -3 -3 -3 -4 -4 -4 -4 -5 -6 -5 -4 -4 -4 -4 -5 -5 -5 -6 -6 -7 -8 -9 -10 -11 -11 -12 -13 -13 -14 -14 -14 -14 -14 -14 -14 -14 -15 -15 -15 -14 -14 -14 -14 -14 -14 -14 -13 -13 -14 -14 -14 -14 -13 -13 -13 -13 -12 -12 -11 -10 -9 -8
4 4 3 2 2 3 2 1 0 1 2 1 1 1 2 0 0 -0 -2 -3 -1 -1 -2 -3 -3 -4 -4 -4 -4 -4 -5 -7 -7 -6 -5 -4 -4 -5 -5 -5 -5 -6 -7 -7 -9 -10 -11 -11 -12 -13 -13 -14 -14 -14 -14 -14 -14 -14 -15 -15 -15 -15 -15 -15 -15 -15 -15 -15 -14 -14 -14 -14 -14 -14 -14 -14 -14 -14 -14 -13 -13 -12 -12 -10 -9 -8
3 3 3 2 2 2 2 1 0 1 1 1 1 1 1 1 0 -1 -3 -3 -1 -1 -2 -3 -3 -4 -4 -4 -4 -5 -6 -7 -6 -5 -5 -4 -5 -5 -5 -6 -6 -6 -7 -8 -9 -10 -11 -12 -13 -13 -14 -14 -14 -14 -15 -15 -15 -15 -15 -15 -15 -15 -15 -15 -15 -15 -15 -15 -15 -15 -15 -15 -15 -15 -15 -15 -15 -14 -14 -14 -13 -12 -11 -10 -9 -8
3 3 2 2 2 1 1 0 1 1 1 1 1 1 1 1 -0 -3 -4 -2 -1 -2 -2 -3 -3 -3 -3 -4 -4 -5 -5 -5 -5 -5 -4 -4 -5 -5 -5 -6 -6 -7 -7 -8 -9 -11 -12 -12 -13 -14 -14 -14 -15 -15 -15 -15 -15 -15 -15 -15 -15 -15 -15 -15 -15 -15 -15 -15 -15 -15 -15 -16 -16 -16 -15 -15 -15 -15 -14 -14 -13 -12 -10 -9 -8 -7
3 2 2 3 2 1 1 1 1 1 2 2 2 2 1 -1 -2 -3 -2 -1 -1 -2 -2 -3 -3 -3 -3 -4 -4 -4 -5 -4 -4 -5 -5 -5 -5 -5 -5 -6 -6 -7 -8 -9 -10 -11 -12 -13 -13 -14 -14 -15 -15 -15 -15 -16 -16 -16 -16 -16 -15 -15 -16 -16 -16 -16 -15 -15 -16 -16 -16 -16 -16 -16 -16 -16 -15 -15 -14 -14 -12 -11 -9 -8 -7 -5
2 2 2 2 1 1 1 1 -1 -0 3 4 2 1 0 -1 -2 -1 -0 -1 -2 -2 -3 -3 -3 -3 -4 -4 -4 -4 -5 -5 -5 -5 -5 -6 -6 -6 -6 -6 -7 -8 -8 -9 -10 -12 -13 -13 -14 -14 -15 -15 -15 -16 -16 -16 -16 -16 -16 -16 -16 -16 -16 -16 -16 -16 -16 -16 -16 -16 -16 -16 -16 -16 -16 -16 -15 -15 -14 -13 -12 -10 -9 -7 -6 -4
2 2 2 1 1 0 -0 -0 -0 1 3 4 2 0 0 0 -0 -0 -1 -2 -2 -2 -3 -3 -3 -3 -4 -4 -4 -5 -5 -5 -5 -5 -6 -6 -6 -6 -6 -7 -7 -8 -9 -10 -11 -12 -13 -14 -14 -15 -15 -15 -16 -16 -16 -16 -16 -16 -16 -16 -16 -16 -16 -16 -16 -16 -16 -16 -16 -16 -16 -16 -16 -16 -16 -16 -15 -14 -14 -13 -11 -10 -9 -8 -6 -5
2 3 2 1 1 1 0 1 2 3 3 3 2 1 1 0 0 -0 -2 -2 -2 -3 -3 -3 -4 -4 -4 -4 -4 -5 -5 -5 -5 -6 -6 -6 -6 -7 -7 -7 -8 -8 -9 -10 -11 -12 -14 -14 -15 -15 -15 -16 -16 -16 -16 -16 -16 -16 -16 -16 -16 -16 -16 -16 -16 -16 -17 -17 -16 -16 -16 -16 -16 -16 -16 -15 -15 -14 -14 -12 -11 -11 -10 -9 -7 -5
3 3 3 2 1 2 2 3 3 3 3 2 1 1 1 0 -0 -1 -2 -3 -3 -3 -3 -3 -4 -4 -4 -4 -4 -5 -5 -5 -5 -6 -6 -6 -7 -7 -7 -8 -8 -9 -10 -11 -11 -12 -14 -14 -15 -15 -16 -16 -16 -16 -16 -16 -16 -16 -16 -16 -17 -17 -17 -17 -17 -17 -17 -17 -17 -17 -16 -16 -16 -16 -15 -15 -15 -14 -14 -13 -12 -11 -10 -9 -8 -7
2 1 2 1 1 1 1 2 3 2 2 2 1 1 0 -0 -1 -1 -2 -3 -3 -3 -3 -3 -4 -4 -4 -4 -5 -5 -5 -5 -6 -6 -6 -7 -7 -7 -8 -8 -9 -10 -10 -11 -12 -13 -14 -15 -15 -16 -16 -16 -16 -17 -17 -17 -17 -16 -17 -17 -17 -17 -17 -17 -17 -17 -17 -17 -17 -16 -16 -16 -16 -16 -15 -15 -15 -15 -14 -13 -12 -12 -11 -10 -9 -8
2 2 2 1 1 1 1 2 3 2 2 1 1 0 -0 -1 -1 -2 -2 -2 -3 -3 -3 -3 -4 -4 -4 -4 -5 -5 -6 -6 -6 -7 -7 -7 -8 -8 -8 -9 -10 -10 -11 -12 -12 -13 -14 -15 -15 -16 -16 -17 -17 -17 -17 -17 -17 -17 -17 -17 -17 -17 -17 -17 -17 -17 -17 -17 -17 -16 -16 -16 -16 -16 -15 -15 -15 -15 -14 -14 -13 -13 -12 -11 -10 -9
3 3 2 1 1 1 1 2 2 0 0 0 0 -0 -1 -1 -2 -2 -2 -2 -3 -3 -3 -4 -4 -4 -4 -4 -5 -5 -6 -6 -6 -7 -7 -8 -8 -8 -9 -9 -10 -11 -11 -12 -13 -13 -14 -15 -16 -16 -17 -17 -17 -17 -17 -17 -17 -17 -17 -17 -17 -17 -17 -17 -17 -17 -17 -17 -17 -16 -16 -16 -16 -16 -16 -16 -15 -15 -14 -14 -13 -13 -12 -11 -10 -9
3 2 2 0 -0 -1 -0 1 0 -1 -2 -1 -1 -1 -1 -1 -2 -3 -3 -3 -3 -4 -4 -4 -4 -4 -4 -4 -5 -6 -6 -7 -7 -7 -8 -8 -9 -9 -10 -10 -11 -12 -12 -13 -13 -14 -14 -16 -16 -17 -17 -17 -17 -17 -17 -17 -17 -17 -17 -18 -17 -18 -17 -17 -17 -17 -17 -17 -17 -16 -16 -16 -16 -16 -16 -16 -15 -15 -14 -14 -13 -12 -12 -11 -9 -9
2 1 1 -0 -1 -1 0 1 0 -1 -2 -1 -1 -1 -2 -2 -2 -3 -3 -3 -3 -4 -4 -4 -4 -4 -5 -5 -5 -6 -6 -7 -7 -7 -8 -9 -9 -10 -10 -11 -12 -12 -13 -13 -14 -14 -15 -16 -16 -17 -17 -17 -17 -18 -17 -18 -18 -18 -18 -18 -18 -18 -18 -17 -17 -17 -17 -17 -17 -16 -16 -16 -16 -16 -16 -15 -15 -15 -14 -14 -13 -12 -12 -11 -10 -9
Height
795 805 812 815 816 814 813 813 813 812 811 811 812 813 810 805 798 791 785 781 782 787 783 779 778 772 771 780 787 790 791 792 793 796 799 800 802 804 805 805 805 806 805 805 805 805 804 803 803 802 800 798 797 796 795 793 791 789 787 787 785 784 784 783 781 778 775 774 774 774 773 771 770 768 767 765 764 763 761 760 758 758 757 755 753 752
799 814 819 816 814 813 812 812 811 811 810 807 810 811 806 802 799 793 789 783 781 786 784 776 776 772 765 773 783 787 790 792 792 795 799 800 803 804 805 806 805 806 805 804 804 804 804 803 802 800 798 797 795 794 793 791 788 787 785 785 783 782 782 781 780 778 774 773 772 771 770 769 768 767 766 764 763 762 760 759 757 756 756 755 754 753
808 818 818 813 814 813 810 810 811 813 810 806 805 806 806 805 801 794 788 785 784 787 784 774 772 769 762 768 780 786 789 790 791 794 798 802 804 805 806 807 806 807 806 805 805 804 803 802 801 799 797 796 795 794 792 790 787 785 783 782 781 780 779 779 778 777 774 771 770 769 767 766 765 765 764 763 762 761 759 757 755 754 753 753 753 752
818 820 816 814 816 815 812 810 814 817 813 808 805 808 812 810 808 802 791 788 788 788 782 773 772 768 762 770 782 786 787 790 793 797 800 803 805 807 807 807 808 808 808 807 807 806 804 802 801 799 797 796 795 793 791 788 786 783 780 779 779 778 777 776 776 774 772 770 768 768 766 765 763 762 761 761 761 760 758 755 754 752 751 751 751 750
822 820 816 816 816 816 815 814 817 821 818 812 809 814 816 810 811 809 797 790 787 782 776 774 776 768 763 774 784 786 788 793 799 801 803 805 806 807 808 808 809 810 810 809 808 808 806 804 801 799 797 795 793 791 789 787 784 781 778 776 777 777 775 774 773 771 769 768 767 766 765 763 761 760 758 758 758 758 757 755 753 751 750 750 749 748
821 818 816 817 816 815 818 818 819 822 824 819 813 814 814 810 809 805 799 796 793 785 775 776 786 776 763 770 781 787 792 797 802 803 804 806 807 808 809 809 810 811 811 810 809 809 807 804 801 798 796 794 791 788 787 785 782 779 776 774 775 775 773 772 771 769 768 766 765 764 763 761 759 758 757 755 754 754 755 753 752 750 749 749 748 747
819 817 817 817 817 819 821 821 819 821 827 824 813 811 811 810 809 803 800 802 802 794 778 776 789 785 767 765 776 789 796 799 802 803 804 807 808 809 811 810 811 812 811 809 809 808 807 804 800 798 795 792 789 786 784 782 780 777 774 773 773 773 772 771 769 768 767 765 764 763 761 760 758 756 754 753 752 751 751 751 750 748 747 746 746 745
822 820 821 820 818 822 825 825 821 820 828 824 811 810 811 809 808 802 801 803 799 792 782 776 783 786 775 768 779 792 797 800 803 804 804 807 810 810 811 810 810 810 809 809 808 807 805 802 799 796 793 791 789 786 783 781 778 776 774 773 772 771 770 770 769 767 765 764 762 761 759 757 755 753 751 751 750 748 748 747 746 746 745 744 743 742
824 823 826 825 823 827 828 826 822 820 826 819 809 810 810 808 804 797 798 799 793 791 792 782 781 794 788 773 781 792 795 800 803 805 808 810 812 811 811 811 809 808 808 807 807 805 803 800 798 795 792 791 789 787 784 781 778 775 773 772 771 770 770 769 767 765 764 762 760 758 757 755 753 751 749 748 747 746 745 744 743 742 741 740 740 739
824 825 828 828 827 830 827 823 820 820 822 814 809 810 807 805 799 791 792 791 789 792 797 789 787 805 800 778 782 790 794 805 807 807 813 812 813 812 811 811 809 808 807 806 805 803 802 800 797 794 792 792 790 788 785 781 777 775 773 772 770 769 769 767 766 764 762 761 759 757 755 753 751 748 747 745 744 743 742 741 739 739 738 737 736 736
827 828 828 828 828 827 824 821 817 816 817 812 811 810 806 804 796 789 786 786 794 794 791 792 794 808 808 793 798 804 804 814 814 812 815 813 813 812 810 810 808 807 806 804 803 801 800 798 794 792 791 791 790 787 784 780 777 776 774 772 770 769 768 766 764 762 760 759 757 755 753 751 749 747 745 743 741 740 739 738 736 735 734 733 733 732
827 828 827 827 828 823 822 821 816 814 814 814 815 812 811 809 799 796 793 794 808 804 793 792 794 805 806 796 806 815 812 815 815 815 816 813 812 811 809 810 807 806 806 804 803 800 797 793 790 790 790 789 788 785 782 779 777 776 774 773 770 768 767 764 762 760 758 757 755 754 752 749 747 745 744 741 739 737 736 734 733 731 730 729 729 728
824 827 827 828 827 822 823 825 820 818 816 817 818 818 824 826 819 820 817 813 818 810 797 795 798 804 799 791 804 813 811 813 812 813 813 811 810 808 809 810 808 808 807 803 801 797 794 791 789 789 788 787 786 784 781 778 776 775 774 772 769 767 765 762 760 758 757 755 753 752 750 748 745 743 741 739 737 735 733 731 730 728 727 725 725 725
829 828 826 826 826 821 823 828 830 827 823 825 826 826 834 842 847 849 837 830 828 813 799 797 802 805 795 791 803 807 807 811 809 809 809 808 809 809 809 810 808 807 805 801 799 796 794 792 790 789 788 787 785 782 780 778 776 775 772 770 767 764 762 760 758 757 755 753 751 749 747 745 743 741 739 736 734 732 730 728 726 725 724 722 721 721
841 836 828 826 826 823 824 828 832 831 829 829 827 828 837 844 855 860 848 842 838 820 806 801 802 805 799 796 801 803 805 809 807 807 808 807 808 809 808 807 807 806 804 803 800 797 795 793 790 789 787 785 783 780 778 777 775 773 770 768 765 763 761 758 757 755 753 751 748 746 744 742 740 738 736 733 731 729 727 725 723 721 720 719 717 716
844 836 825 824 825 823 826 827 828 831 833 830 825 831 841 841 847 853 844 837 835 827 817 807 801 800 796 795 801 806 805 805 806 807 807 809 809 809 808 807 808 808 806 804 800 797 795 792 789 787 785 783 781 779 777 775 773 770 768 766 764 762 760 758 756 755 752 749 746 744 741 739 737 735 732 730 728 726 724 722 720 718 716 715 714 713
852 841 825 825 827 824 826 826 826 832 835 832 833 840 842 837 839 847 843 831 833 839 826 810 807 803 798 800 803 806 805 805 809 810 809 812 812 811 812 811 811 809 805 802 799 796 793 790 787 784 782 780 779 778 776 773 771 768 767 765 762 760 758 757 755 754 751 749 745 742 740 737 734 732 729 727 725 723 721 719 717 715 713 711 710 709
862 855 833 826 828 824 826 827 826 831 832 833 842 843 838 836 836 843 851 845 844 847 828 812 817 818 814 812 805 805 809 811 813 813 813 815 817 817 816 813 812 808 804 801 798 796 793 789 786 782 780 779 777 776 774 771 769 767 765 763 761 759 757 755 754 752 751 748 745 741 738 736 733 730 728 725 723 721 718 716 714 712 710 708 707 706
863 862 839 823 824 825 827 830 829 831 831 831 838 839 841 850 850 847 856 858 854 850 834 823 825 823 817 814 811 813 817 818 817 817 818 818 819 819 816 813 811 806 803 801 797 795 791 788 785 781 779 777 775 773 771 769 767 765 763 761 759 757 755 753 752 750 748 746 743 739 736 734 731 728 726 723 720 718 715 713 710 709 707 705 704 702
862 865 847 825 822 823 823 827 830 833 833 831 835 837 840 849 854 854 857 857 857 856 848 840 832 822 815 814 818 822 820 820 821 819 820 819 818 818 815 812 809 805 803 800 796 793 789 786 783 780 778 775 773 771 768 766 764 762 761 759 757 755 752 751 749 747 746 744 741 737 733 731 728 725 723 720 717 715 712 709 707 705 703 701 700 699
861 862 852 833 825 825 826 829 831 833 837 839 841 844 847 849 851 854 852 847 853 861 862 857 842 822 815 816 820 823 822 823 823 821 822 821 819 818 815 812 809 805 803 799 795 791 787 785 782 779 777 774 771 769 766 764 762 760 758 756 754 752 749 748 746 745 744 741 738 734 731 728 725 722 719 716 713 710 708 706 703 702 700 698 697 696
866 863 859 848 837 829 829 833 833 833 838 842 843 845 851 857 857 861 859 849 851 861 863 865 854 828 816 818 820 824 826 825 825 825 824 822 820 818 814 812 810 806 802 798 793 789 785 782 779 776 774 772 769 766 763 761 759 757 755 753 751 749 747 745 744 743 741 738 735 732 728 726 723 720 716 711 708 705 703 702 700 698 696 694 693 692
874 872 866 856 842 832 833 838 837 837 838 842 846 845 849 856 859 866 869 858 855 859 856 860 855 828 815 819 821 826 828 827 828 829 827 823 820 817 814 812 810 806 801 796 792 788 784 780 777 774 771 769 766 763 760 758 756 754 752 750 748 746 744 743 741 739 738 735 731 728 725 722 720 717 713 707 703 701 698 697 695 694 692 691 690 689
875 870 861 851 839 832 836 841 841 841 844 845 846 848 851 856 858 862 865 863 867 866 860 864 853 822 811 819 823 827 829 829 830 830 828 824 819 817 815 812 810 805 800 795 791 786 782 779 776 772 769 767 763 761 758 755 753 751 749 747 745 742 741 740 738 736 734 731 727 725 722 719 715 713 709 704 700 697 694 692 691 689 688 687 687 686
874 861 856 859 858 852 847 847 847 845 845 843 843 851 857 859 862 863 862 868 875 869 865 873 857 821 813 822 825 828 831 832 833 832 829 826 820 817 815 811 808 803 798 795 790 784 781 777 774 771 768 764 761 759 756 753 750 748 745 744 742 740 738 737 736 734 731 728 725 722 719 714 711 709 705 701 698 694 691 688 686 685 684 683 682 682
880 864 861 871 879 880 873 864 856 849 846 842 840 849 860 862 865 867 868 875 879 868 864 873 857 825 818 827 829 831 834 833 833 832 830 827 822 818 815 810 806 801 797 793 788 784 781 777 774 771 767 764 761 758 755 751 748 745 743 741 740 739 737 735 733 731 728 725 722 717 713 709 707 704 701 698 695 692 689 686 684 682 681 680 679 678
882 869 871 878 880 883 878 866 857 854 853 849 843 845 856 864 866 868 873 876 873 866 860 859 851 835 829 835 834 833 836 836 833 831 829 827 823 819 815 810 805 801 797 792 788 785 782 779 776 772 768 764 760 756 753 749 747 744 741 740 739 738 736 733 730 728 725 723 718 712 708 705 703 700 698 695 692 689 687 684 682 680 679 678 676 675
882 874 878 882 877 876 873 865 860 858 854 849 846 845 850 860 865 867 871 868 864 868 859 843 843 844 837 836 837 837 839 838 834 832 830 827 823 819 815 810 805 800 796 792 789 787 784 780 777 772 768 764 759 755 752 749 746 744 742 740 738 736 734 731 728 726 722 719 714 709 705 702 700 697 694 691 689 687 685 683 681 679 677 676 674 673
887 880 878 881 878 875 872 865 858 854 851 848 848 846 846 853 861 864 867 864 864 873 863 843 843 847 840 837 840 841 840 839 837 835 831 826 821 817 814 810 804 800 797 794 791 789 785 781 776 772 767 763 759 754 751 749 747 745 742 739 736 733 730 728 725 723 720 715 711 707 703 700 697 695 692 689 687 685 683 681 679 678 676 674 672 670
886 879 876 881 882 876 869 862 855 851 852 850 847 846 848 854 859 862 866 865 866 869 863 854 851 848 843 843 844 843 842 841 839 836 830 825 820 815 811 808 804 802 800 797 793 789 785 780 776 771 766 762 758 755 753 751 749 745 741 737 734 731 728 725 721 719 717 713 708 705 701 698 696 693 690 688 685 683 680 678 677 675 673 672 670 668
884 881 877 879 883 877 865 858 855 854 855 852 848 848 854 860 864 867 868 866 866 865 860 858 857 849 845 846 847 847 845 841 839 836 830 825 821 815 809 805 804 802 799 796 793 789 784 779 774 770 767 763 760 757 755 751 747 744 739 735 732 729 726 723 719 716 714 710 706 703 700 698 695 692 689 687 684 681 678 676 674 672 671 669 667 665
888 888 881 879 886 879 863 858 859 856 852 852 854 860 865 869 872 873 871 869 869 865 858 857 858 852 846 845 846 847 846 842 838 836 832 826 821 817 811 806 804 802 798 794 790 786 782 778 773 769 766 763 760 757 754 749 745 741 738 735 731 727 724 721 718 715 713 709 705 702 700 697 694 690 688 685 682 679 676 674 672 670 668 665 663 660
890 892 886 885 890 880 866 864 864 859 855 856 863 871 873 872 873 872 871 869 868 866 863 862 859 853 846 843 842 842 844 843 840 837 834 828 822 818 814 811 806 802 798 794 789 785 781 777 773 769 765 762 759 756 753 749 744 740 738 734 730 726 723 720 717 715 712 709 705 702 699 695 692 689 687 684 681 677 675 672 670 668 665 661 658 656
890 893 889 888 893 886 873 868 865 863 864 865 867 871 874 874 875 874 872 868 864 862 864 863 859 853 850 847 844 841 840 842 840 837 834 829 823 818 814 811 807 802 798 793 788 785 781 776 773 770 767 764 760 755 751 748 744 741 737 733 728 726 723 720 717 714 711 708 704 700 697 694 690 688 686 684 681 677 673 670 667 664 661 658 655 652
893 893 889 887 890 886 876 877 881 874 866 865 868 869 871 873 874 872 868 864 861 860 862 862 859 855 853 851 848 843 838 838 838 835 831 827 824 819 813 808 804 800 796 791 786 783 780 777 773 768 765 762 758 754 750 746 743 740 736 731 728 726 723 720 716 713 710 706 702 699 695 692 690 688 685 683 680 676 672 668 665 662 659 655 651 648
893 893 891 888 888 886 883 890 895 877 857 859 869 869 870 873 873 874 869 861 860 862 863 862 859 856 854 851 846 842 837 833 832 830 828 825 822 819 814 807 802 798 795 791 787 784 781 778 774 768 764 760 757 753 748 745 741 738 734 731 728 726 722 719 715 711 708 705 701 698 695 692 689 687 684 681 678 673 669 665 662 659 656 652 648 645
892 891 895 894 889 887 890 892 887 870 858 864 873 871 873 875 875 877 873 861 858 862 862 861 859 855 852 849 844 840 834 829 826 823 821 820 817 816 813 808 803 799 794 790 788 786 784 780 775 770 764 760 757 753 747 743 740 737 733 730 728 725 721 718 714 710 707 704 701 698 694 691 688 685 682 679 675 671 667 663 659 655 653 650 645 641
892 891 899 903 893 886 891 893 887 875 866 868 874 871 871 874 871 873 874 864 857 859 861 860 859 855 851 847 843 839 834 830 824 816 812 812 810 808 806 804 802 798 793 788 784 782 780 778 774 769 764 759 756 753 748 743 739 736 732 729 726 723 719 716 712 709 706 703 700 696 693 691 687 684 680 677 673 669 664 660 656 652 649 647 643 639
893 890 894 901 896 890 895 901 899 889 874 870 873 870 868 872 870 869 871 863 855 856 858 859 859 855 851 847 842 839 838 834 824 814 809 807 805 803 800 797 794 793 791 788 784 779 776 773 770 766 763 759 755 751 747 743 739 736 732 729 725 721 718 714 711 708 705 702 698 695 692 689 686 683 679 674 670 666 662 658 653 649 646 644 640 637
895 894 894 900 899 894 894 899 899 891 878 873 872 869 868 867 866 871 873 860 850 854 857 857 856 853 850 847 843 840 841 836 825 815 811 808 805 803 800 795 791 787 784 782 781 778 775 772 768 763 759 756 753 749 746 742 739 735 731 728 724 720 716 713 710 707 704 701 697 694 691 688 685 682 678 673 668 664 659 655 651 646 643 640 637 634
894 897 898 898 899 899 901 900 893 882 875 872 870 868 867 864 867 877 876 859 850 854 856 855 855 851 847 846 843 840 838 834 827 818 813 809 804 800 798 795 792 789 785 781 778 776 773 771 768 763 759 756 752 748 745 742 738 734 731 727 723 719 715 712 709 706 703 699 696 693 690 687 683 679 676 672 667 661 656 653 649 644 640 637 634 631
899 901 898 895 899 902 899 895 889 879 870 867 866 865 867 872 877 876 866 856 855 856 855 854 853 849 846 845 841 837 833 829 824 818 813 809 805 799 795 792 788 785 783 780 777 775 771 768 765 762 758 755 751 747 744 741 737 733 729 725 721 718 715 711 708 704 701 698 694 691 688 684 681 677 673 669 665 660 654 650 647 643 639 635 631 628
901 903 899 897 902 901 895 897 901 889 868 861 865 867 870 876 877 868 858 857 858 856 855 854 851 848 846 842 838 835 830 824 821 817 812 808 804 799 795 791 786 782 779 776 774 772 770 766 762 760 756 753 750 747 743 740 736 732 728 724 720 717 714 710 707 703 700 696 693 689 685 682 678 675 671 666 662 659 653 648 645 642 638 633 629 625
902 904 903 903 905 906 905 904 899 883 866 863 870 872 871 871 869 865 863 861 858 856 856 853 849 847 844 840 835 831 826 822 818 814 809 805 800 796 793 789 786 782 778 776 774 771 768 764 760 758 755 752 749 746 742 739 734 730 727 723 719 716 712 709 705 702 698 694 690 687 683 679 676 673 669 665 661 657 652 648 644 640 636 633 629 625
900 899 902 904 903 903 902 893 880 871 868 869 872 871 870 869 867 867 866 863 860 858 856 852 848 845 842 838 833 828 824 820 815 811 807 802 798 794 791 787 785 781 777 775 772 770 768 764 760 757 753 751 748 745 741 738 734 729 726 722 719 715 711 707 704 700 696 692 688 684 681 677 674 671 667 664 661 657 652 648 645 641 636 633 629 626
898 897 899 902 899 894 888 880 874 873 871 870 871 871 870 869 867 867 866 864 861 859 855 852 847 842 839 836 831 826 822 817 813 808 804 800 796 793 789 785 783 780 777 774 771 768 765 762 759 756 752 749 747 743 740 737 733 729 725 722 718 715 711 707 703 699 695 691 687 683 679 675 671 668 666 663 660 657 653 649 646 642 637 633 630 627
900 902 902 901 900 896 887 877 874 874 871 870 871 869 868 868 867 867 866 863 860 857 854 850 846 841 838 834 829 825 820 815 811 806 801 798 794 790 787 784 780 778 776 773 769 766 763 759 757 754 751 747 744 742 738 735 732 729 725 721 718 714 710 706 702 698 694 690 686 681 677 674 670 666 664 661 659 656 653 650 647 643 639 635 631 627
900 902 901 900 899 897 888 877 874 874 872 872 872 869 868 868 865 864 864 861 858 855 851 848 845 840 836 832 828 823 817 812 809 805 799 796 792 788 785 782 779 776 774 772 769 765 761 759 756 754 750 746 743 740 737 734 731 728 725 721 717 713 709 705 701 697 693 690 685 681 677 674 670 666 663 660 658 655 652 648 646 643 640 636 632 628
898 898 899 900 898 893 885 878 875 874 871 870 872 871 869 868 864 862 861 859 856 853 849 846 843 839 835 830 826 821 815 810 807 803 799 795 791 788 785 781 778 775 773 771 768 765 761 759 757 754 750 746 742 739 736 733 730 727 724 720 716 713 708 704 700 696 692 688 684 681 677 674 671 667 664 660 657 654 651 648 645 642 638 635 633 630
899 899 900 902 902 897 889 883 882 881 875 870 871 870 869 867 865 861 858 856 854 851 847 843 839 835 832 829 825 821 815 809 805 802 799 795 791 788 785 781 777 775 773 770 768 764 761 759 757 754 750 746 742 739 736 733 730 726 723 720 716 712 708 704 699 695 692 688 684 680 677 674 670 667 664 660 657 653 649 645 644 641 638 634 631 628
902 902 903 905 903 897 889 886 887 886 880 873 872 871 868 865 863 860 857 855 853 849 846 842 837 832 828 824 823 821 815 809 805 802 798 795 793 790 786 782 778 775 772 770 767 763 760 758 756 753 749 745 742 739 735 732 729 726 722 719 715 712 708 704 700 695 691 688 684 681 678 675 671 667 664 660 657 653 647 642 638 637 636 635 631 627
Wind_Speed
5 5 5 5 5 5 5 4 4 4 7 7 5 6 6 7 6 8 13 9 3 3 7 8 10 12 8 9 11 9 9 8 7 6 4 3 3 1 1 2 2 3 4 5 6 10 15 16 17 22 21 19 22 25 25 27 26 23 22 23 24 22 20 19 18 15 13 12 14 15 15 15 17 19 21 20 19 20 21 22 21 17 14 12 13 14
6 6 5 4 5 6 4 4 5 8 9 7 5 6 5 5 8 11 13 9 4 4 8 11 12 13 10 6 11 10 9 8 7 7 5 4 3 1 2 3 3 3 5 6 8 13 18 19 22 24 22 22 25 28 29 28 26 24 23 24 24 22 21 20 20 17 14 14 16 17 15 15 16 18 20 21 22 22 24 25 26 24 19 17 16 15
5 5 5 5 5 7 5 3 6 12 11 7 3 3 4 6 9 10 9 7 7 7 9 14 12 11 10 4 11 9 7 6 5 6 5 4 2 3 3 3 4 5 6 7 10 14 17 19 22 22 21 22 26 29 31 28 25 23 22 24 24 23 22 21 21 21 19 18 19 19 18 16 15 15 17 21 24 25 26 26 28 29 25 20 19 19
4 3 6 6 4 6 7 4 8 10 8 6 4 4 5 8 9 8 9 11 11 8 11 15 11 9 7 4 8 7 6 5 5 6 5 4 2 3 3 4 5 6 7 9 10 13 18 21 22 22 21 22 25 28 28 27 25 22 22 24 25 25 24 23 23 23 21 21 22 23 23 20 16 15 16 18 21 24 26 26 25 26 25 22 20 19
4 2 5 6 4 5 7 7 7 6 6 6 4 5 7 11 10 10 13 14 12 10 10 9 8 7 2 6 6 5 6 6 6 5 4 3 3 4 4 5 6 7 8 10 10 12 16 19 21 23 22 23 25 26 27 26 25 23 23 23 26 28 26 25 24 22 21 22 23 25 25 23 19 17 15 14 17 19 23 24 23 21 21 21 20 19
3 1 2 6 4 7 8 5 6 5 6 5 3 6 11 13 14 15 14 12 9 7 3 2 4 7 1 4 6 6 5 6 6 4 5 3 4 4 5 5 6 9 8 7 9 12 16 20 22 23 24 26 26 24 26 28 26 24 24 24 26 27 25 24 24 23 23 22 23 24 23 22 20 18 16 16 17 17 20 23 24 24 24 23 21 21
3 3 3 5 4 8 8 5 6 5 4 4 4 9 12 12 15 17 14 9 4 6 6 2 3 6 6 4 4 8 6 6 6 4 4 4 4 5 5 5 6 9 9 7 9 13 17 20 23 24 27 29 28 25 26 27 26 26 26 26 24 23 23 25 27 26 24 24 24 24 24 23 21 20 20 21 20 19 19 21 24 26 28 29 26 24
3 5 5 6 4 7 7 6 7 6 3 5 7 10 13 14 16 17 13 8 5 6 9 5 4 5 9 6 5 9 6 6 6 4 3 4 6 6 7 7 6 7 8 8 10 12 16 20 24 27 30 31 30 30 28 27 27 27 27 26 24 23 25 25 25 25 25 25 24 23 24 24 23 23 23 24 24 21 20 22 24 25 26 27 27 26
1 4 4 5 4 5 6 7 8 6 2 6 9 11 12 14 16 16 10 8 7 5 6 5 9 7 9 8 3 8 7 6 6 3 4 6 7 6 8 10 11 10 9 9 11 13 17 22 26 29 31 32 32 31 30 29 29 28 26 25 24 23 24 25 24 25 26 26 25 24 24 24 24 24 25 25 25 24 23 22 23 23 24 24 25 26
2 2 0 2 3 3 5 9 8 6 5 8 10 11 10 10 14 13 6 5 5 3 4 7 12 7 10 9 2 3 4 3 3 4 4 6 7 8 9 10 12 13 12 9 10 14 19 25 28 29 29 31 32 31 30 30 29 28 27 28 27 24 23 26 25 25 27 27 27 26 25 26 26 26 26 26 26 25 25 24 23 22 23 24 25 26
1 2 1 0 2 0 4 8 6 6 7 9 9 10 8 7 9 7 3 3 5 3 1 9 12 8 8 5 2 1 2 2 2 3 4 6 8 9 9 9 10 11 11 10 10 14 22 29 30 28 28 30 32 32 30 29 27 28 30 31 29 25 26 28 27 27 27 27 27 26 26 26 27 28 27 26 25 25 25 25 24 23 22 23 24 24
2 1 0 1 2 1 4 6 5 6 7 6 6 7 8 6 5 4 3 3 4 4 5 11 14 10 7 2 2 2 4 4 3 2 3 5 7 10 11 12 13 11 11 12 11 14 20 25 27 27 28 30 31 31 31 27 25 27 30 30 27 26 29 30 28 27 27 27 27 27 27 27 27 28 27 27 27 26 24 25 25 24 23 22 22 23
1 2 1 1 3 2 4 4 4 6 6 6 6 6 7 7 5 5 5 4 5 7 8 13 15 9 6 2 4 5 5 5 2 2 1 5 9 12 13 14 13 11 12 14 14 16 17 18 21 23 26 28 28 30 29 25 25 27 28 27 26 27 29 27 26 28 29 29 28 27 27 28 27 27 27 28 28 27 26 25 24 23 22 22 22 23
2 2 1 1 3 1 4 3 3 5 6 7 7 6 5 5 6 5 5 5 7 10 11 14 12 6 5 3 4 5 5 5 3 4 1 9 14 15 14 13 12 14 16 17 17 17 16 17 20 21 24 26 27 28 25 22 25 26 26 27 26 27 27 25 25 29 31 31 28 26 26 27 28 28 28 29 29 28 27 26 25 25 25 24 23 24
2 2 1 1 3 2 3 2 1 3 5 5 5 5 4 3 3 3 4 5 8 12 12 12 7 3 6 3 4 4 4 6 4 2 7 15 17 16 15 14 16 18 19 18 18 16 17 22 24 22 23 25 24 24 22 22 26 26 26 27 26 26 27 25 27 30 31 31 30 27 26 27 28 28 29 29 29 28 27 28 30 30 28 26 25 25
2 3 3 2 2 2 2 2 2 2 3 3 4 3 3 3 2 2 5 7 9 11 9 7 4 3 7 3 4 4 4 4 2 10 17 20 20 19 17 16 17 18 18 17 17 15 18 25 25 21 23 22 21 22 23 25 27 26 26 26 26 27 27 26 28 30 30 31 30 28 27 28 29 30 30 29 30 29 29 30 30 30 28 26 26 26
1 4 9 8 3 1 2 2 1 1 2 2 3 2 3 7 3 2 7 8 8 9 6 5 6 6 8 4 2 2 3 5 12 18 20 21 23 21 16 15 17 17 18 17 16 15 19 23 24 22 21 19 20 23 25 27 28 25 25 26 25 25 24 26 29 30 31 32 32 31 30 30 31 31 29 29 30 29 29 29 30 30 29 28 27 27
1 5 12 8 3 2 2 4 3 1 2 2 2 2 5 7 2 0 6 7 6 7 6 7 11 10 8 4 2 6 11 15 19 21 21 20 20 18 16 17 19 19 18 17 17 18 20 23 24 23 20 18 21 24 25 26 27 25 26 27 24 22 22 25 27 30 34 35 34 33 33 32 33 32 30 30 31 30 30 30 30 29 29 28 27 27
1 4 7 3 3 4 1 4 2 1 2 2 2 2 1 1 1 2 4 6 8 9 7 11 15 10 4 4 7 12 16 19 22 22 20 19 16 16 18 19 21 20 17 17 17 16 17 21 26 25 20 20 24 25 24 25 27 27 27 25 22 20 21 22 27 33 37 36 33 32 32 32 33 33 33 33 33 32 31 31 30 28 29 29 28 28
2 3 4 1 7 8 1 1 2 1 1 2 2 1 1 1 2 2 2 4 7 10 9 13 15 6 1 5 10 14 18 21 23 21 18 17 17 17 19 18 19 19 17 17 17 16 16 22 27 25 22 24 25 24 25 26 27 27 24 22 20 20 19 22 29 35 36 35 34 33 33 33 34 36 36 35 34 32 31 31 31 30 30 29 27 25
2 3 4 4 8 9 2 0 2 1 2 2 2 1 1 0 1 2 3 3 4 7 8 10 13 6 3 5 10 16 20 22 22 21 18 17 20 21 20 19 19 19 19 19 17 16 17 23 28 26 24 26 26 25 27 28 27 24 21 20 19 17 19 24 30 32 34 36 36 36 35 34 38 42 41 38 36 34 33 33 31 30 30 29 25 23
2 3 5 5 6 6 2 1 1 3 3 1 3 1 1 1 1 3 5 4 2 5 6 8 13 9 2 6 11 15 19 21 21 20 18 19 22 23 20 20 20 21 20 19 18 17 17 22 28 27 26 27 25 25 28 29 28 24 20 19 18 17 20 25 27 29 32 35 37 37 36 37 41 44 43 41 39 37 35 34 32 31 31 29 25 23
2 2 4 5 5 4 2 2 2 4 5 1 2 1 1 2 2 1 6 7 7 8 8 8 12 8 4 9 13 15 18 20 18 19 21 21 22 22 21 22 23 22 21 20 19 17 18 25 29 28 28 27 25 26 28 28 27 23 20 20 19 19 23 26 27 29 32 34 36 35 35 39 43 42 42 40 37 35 35 33 32 32 31 28 24 22
1 1 4 5 5 4 2 2 3 4 5 1 1 1 1 2 3 3 3 4 6 9 9 9 12 9 4 10 14 17 18 18 17 20 23 22 20 20 22 23 22 22 21 20 19 18 21 27 28 27 26 26 27 28 29 29 27 23 21 22 22 23 26 28 29 30 33 34 34 33 36 41 42 38 37 36 33 33 33 32 31 30 28 26 23 22
1 1 3 5 6 7 5 4 4 1 1 4 2 2 2 2 2 2 3 2 4 7 9 10 13 11 7 12 18 18 18 19 20 21 22 21 20 20 21 22 22 21 20 21 21 20 21 22 22 24 26 28 29 30 32 32 28 23 23 23 24 25 27 29 30 32 33 32 33 35 38 40 38 34 33 33 32 32 31 29 28 27 26 26 26 26
2 2 3 3 3 7 8 7 7 6 5 6 5 1 2 3 3 1 3 4 5 8 10 8 11 16 15 18 21 19 18 21 23 22 21 20 21 21 21 21 21 20 20 22 22 20 19 19 21 27 31 32 33 34 35 33 28 26 26 24 23 25 28 30 32 31 31 32 37 41 39 37 34 32 31 31 30 30 28 27 26 25 25 25 25 26
2 2 3 3 2 4 8 10 11 11 9 10 11 8 0 4 4 3 1 6 8 10 11 8 11 20 21 20 19 18 20 23 23 22 22 21 21 22 22 22 22 21 20 21 20 19 20 21 22 29 34 35 36 36 34 32 30 29 26 23 23 26 30 32 31 31 33 38 42 41 36 33 31 32 31 29 27 27 26 27 27 27 28 27 27 28
2 2 2 5 7 7 10 14 14 12 11 13 15 12 3 4 5 3 2 9 10 9 12 16 19 23 22 20 18 18 22 23 22 23 23 21 21 21 22 24 25 23 22 21 22 22 24 24 24 28 33 36 36 35 32 29 28 27 25 25 27 30 31 31 31 34 38 39 38 34 31 31 31 30 29 27 25 25 26 27 28 28 29 29 29 29
1 2 1 4 8 11 12 14 12 11 11 12 13 13 7 1 1 2 4 8 9 9 15 23 27 25 22 19 19 20 23 23 22 23 22 22 23 23 24 25 24 25 25 25 26 26 26 27 25 27 33 36 33 28 26 26 25 26 28 30 31 31 30 29 32 36 38 36 33 31 30 30 29 27 27 27 27 27 27 27 26 26 27 28 28 29
2 2 5 4 7 11 13 12 11 12 12 13 11 7 4 4 5 7 7 7 9 11 16 22 26 22 16 15 18 21 22 20 19 21 22 24 26 27 26 23 22 25 27 27 28 28 27 27 27 31 36 33 26 23 24 27 30 31 32 32 31 31 31 32 32 32 34 34 31 29 28 27 27 28 30 30 29 28 27 25 24 24 25 27 28 29
1 3 7 4 4 9 11 9 11 14 14 14 9 4 5 7 7 7 9 9 11 15 18 20 20 16 10 12 17 18 19 20 20 22 24 24 26 27 26 24 23 25 28 29 28 27 27 27 27 30 30 25 23 25 27 30 33 33 32 31 32 33 34 33 30 29 31 32 29 26 28 29 30 31 30 29 29 29 26 24 24 27 29 31 31 30
2 3 6 4 3 7 8 9 15 19 16 10 5 5 8 8 6 6 8 10 12 18 22 19 14 11 11 15 18 17 19 22 23 23 23 23 24 25 23 23 26 28 29 29 27 25 28 30 25 21 20 20 25 29 30 32 33 31 31 34 35 34 32 30 30 30 32 32 29 29 30 31 30 28 27 28 28 27 25 24 27 30 32 34 33 32
3 3 4 4 4 7 8 11 16 16 12 5 2 5 6 7 9 9 9 11 13 14 15 13 10 12 16 20 22 21 21 21 21 21 21 21 22 22 21 22 26 28 27 26 26 25 26 27 22 18 19 24 28 31 35 38 33 30 33 36 34 31 30 30 31 31 32 32 31 30 30 29 26 25 26 28 28 28 28 29 30 31 30 31 31 30
3 3 3 2 2 6 10 13 12 8 6 3 2 4 6 8 11 13 13 14 15 12 10 10 11 15 19 21 22 24 21 19 19 20 19 18 17 19 23 23 24 26 26 25 26 27 27 27 25 24 28 32 34 36 37 35 32 32 35 34 30 29 31 32 31 31 31 31 30 29 28 26 25 25 27 29 30 30 31 30 31 30 29 29 29 28
4 4 3 2 2 5 8 9 8 7 5 1 5 5 8 8 9 14 17 15 14 14 12 11 14 18 20 19 20 22 21 20 20 18 17 16 16 19 24 24 23 26 26 24 24 24 29 31 27 27 32 35 37 40 36 31 32 35 34 29 27 30 32 32 30 30 30 29 28 28 27 27 27 27 28 30 31 31 31 30 30 30 28 27 27 27
2 3 3 3 3 4 5 5 6 9 8 1 4 5 8 8 9 13 16 14 11 11 11 12 16 19 19 19 19 19 21 22 18 14 13 14 17 19 21 22 24 25 24 26 27 27 32 34 30 31 36 37 39 42 37 32 33 34 32 29 29 30 31 31 30 29 29 28 28 28 28 28 28 28 29 31 31 31 31 30 30 29 28 26 27 27
2 2 3 3 2 2 5 5 6 11 8 1 2 3 6 7 9 9 13 14 9 7 10 14 18 19 19 20 19 19 22 21 16 12 13 17 19 21 21 22 25 27 28 31 32 31 35 38 36 38 41 38 39 40 37 34 34 32 30 30 31 32 31 30 29 28 28 29 29 29 29 28 28 29 31 31 31 31 31 30 30 30 27 26 26 26
1 1 2 1 2 2 5 6 6 9 7 1 0 3 4 6 8 9 13 12 5 8 13 15 17 20 20 19 20 20 20 18 15 13 16 21 23 23 23 24 28 31 32 34 35 34 35 38 39 40 40 38 38 38 35 34 34 32 30 31 32 32 30 28 28 28 29 29 30 30 28 27 28 31 32 32 31 31 31 31 31 30 28 25 25 25
1 1 2 1 3 3 4 5 5 6 6 3 4 6 5 6 9 11 12 7 5 11 14 14 17 19 19 19 20 18 15 14 14 14 19 24 26 25 24 25 31 36 34 34 35 33 33 37 40 40 38 36 37 36 34 34 33 31 31 32 32 31 29 28 29 29 29 30 30 29 28 28 30 31 31 31 30 30 32 32 31 31 28 26 25 25
1 2 1 1 4 4 5 5 4 4 5 4 6 8 9 9 9 11 11 9 10 13 14 14 17 18 17 18 18 14 12 13 14 17 22 26 28 29 28 28 33 37 36 37 37 32 31 37 39 38 36 36 36 36 35 34 32 30 30 31 31 29 28 29 30 30 31 31 29 29 29 29 31 31 30 31 31 33 33 32 31 31 29 27 26 25
2 1 1 1 3 4 5 5 5 5 4 4 6 7 9 10 10 10 11 12 13 15 14 14 17 18 16 16 14 11 12 15 17 21 25 26 27 30 33 36 38 38 36 38 38 34 33 37 37 36 36 36 36 35 34 33 32 30 30 30 29 28 29 30 31 31 30 30 29 30 30 30 31 32 32 31 32 33 34 32 30 31 31 32 31 26
3 2 1 2 2 3 3 5 7 5 2 3 10 8 6 8 10 9 10 12 14 16 15 15 17 17 16 16 15 13 16 20 22 22 24 25 25 26 32 36 37 36 37 38 36 31 31 34 36 36 35 35 35 34 34 34 31 29 29 28 28 30 31 31 30 30 29 30 30 31 31 31 32 32 32 32 32 31 32 32 29 27 29 31 29 24
2 2 3 3 1 2 4 4 5 5 4 10 14 8 4 6 8 10 11 13 14 15 15 15 15 15 16 17 17 18 21 22 23 23 24 25 25 27 32 34 33 33 37 39 35 29 28 32 35 35 35 34 34 34 34 33 30 28 28 29 30 32 32 30 29 29 29 30 31 32 32 32 32 32 32 33 32 30 30 30 28 26 25 25 22 18
1 0 2 2 1 2 4 3 3 8 11 11 9 6 7 9 9 9 11 12 12 13 12 12 13 15 17 18 19 21 22 22 22 23 24 25 24 26 30 33 33 34 36 37 35 30 28 31 33 33 34 34 34 35 35 32 30 29 28 30 31 32 31 30 29 29 30 31 31 32 32 32 33 33 32 31 29 28 27 27 25 25 24 22 20 17
2 2 1 2 1 2 4 8 9 11 11 7 6 7 11 11 9 9 11 11 11 12 11 11 14 17 17 19 21 21 20 21 22 23 24 24 23 23 27 31 33 35 36 37 36 31 28 30 30 31 33 34 35 35 34 32 30 29 28 30 32 32 31 30 30 31 31 31 32 32 33 33 32 31 29 27 26 25 25 24 23 23 23 21 19 16
1 1 2 2 4 5 7 10 11 12 10 9 9 9 9 8 8 9 11 11 11 11 11 13 15 17 18 19 20 20 20 22 24 23 23 23 23 24 28 31 33 36 36 36 36 32 27 28 29 29 32 34 35 34 33 32 30 28 28 31 32 31 31 31 32 31 31 31 32 33 32 32 30 28 27 25 25 23 22 22 22 22 22 20 18 16
2 1 1 2 6 7 8 9 11 12 13 13 12 10 8 10 10 10 10 11 12 13 14 15 17 18 19 19 20 21 23 25 24 23 22 21 21 22 26 29 32 35 36 37 38 34 26 25 27 28 31 34 34 33 32 31 29 28 30 32 32 32 32 32 31 30 30 31 32 32 31 30 29 28 27 25 26 25 22 21 21 20 20 19 18 18
0 1 2 4 6 7 10 14 15 14 14 12 10 9 10 12 13 13 14 14 16 17 19 20 21 18 17 19 21 22 24 25 25 23 21 20 20 21 25 30 33 35 36 38 39 34 25 24 27 29 32 34 33 32 31 29 28 29 31 31 32 32 33 32 31 30 30 31 30 29 28 27 26 27 27 26 26 26 24 24 23 21 20 20 19 19
2 2 2 5 7 8 12 15 16 16 15 12 11 11 12 13 15 17 17 16 17 18 19 23 25 23 22 23 23 23 23 24 24 24 23 20 19 22 29 33 34 35 37 38 38 33 25 24 28 31 32 33 33 32 31 28 28 30 31 31 32 33 32 32 31 31 30 30 28 27 26 25 25 26 26 26 26 26 26 25 24 23 23 22 21 21
3 4 3 5 7 8 11 13 14 14 13 12 13 15 16 16 16 17 17 16 16 17 18 21 25 28 30 30 27 23 21 22 25 27 24 20 22 28 34 35 34 36 38 37 38 34 25 23 28 31 32 33 33 31 29 28 30 32 32 32 33 33 32 31 31 30 29 28 27 27 26 25 26 26 26 26 26 26 27 26 23 21 21 22 23 23
1 2 2 4 7 10 13 13 12 11 11 14 16 17 18 18 17 16 18 18 18 20 22 22 23 25 27 29 31 27 21 23 31 31 23 22 29 35 35 34 35 38 38 36 36 33 25 24 29 32 31 32 32 29 28 29 32 32 32 33 33 32 32 31 30 28 28 27 27 26 26 25 25 26 26 25 25 26 26 27 27 22 16 16 20 23
Wind_Direction
55 54 48 26 359 348 0 357 332 312 291 283 282 281 276 282 300 312 312 319 19 322 283 277 283 286 267 188 175 178 182 192 189 172 166 165 145 121 91 54 24 16 352 330 340 336 328 333 339 339 337 336 337 336 333 327 323 319 320 317 312 308 303 299 299 298 301 309 309 305 306 310 310 308 306 302 296 294 291 290 291 286 273 269 269 267
65 54 41 16 344 328 321 292 330 344 311 287 260 273 294 303 311 306 300 311 348 316 285 280 278 279 280 189 171 177 177 186 183 171 165 146 125 96 56 21 14 12 333 321 339 341 339 342 339 336 338 339 337 333 328 322 318 316 317 314 310 305 300 296 296 294 295 297 291 286 288 296 301 302 306 307 304 300 295 289 289 288 279 268 267 264
59 57 19 355 342 326 300 263 359 355 327 302 271 293 327 320 315 299 289 317 334 317 291 287 281 277 284 179 162 173 172 179 167 147 132 114 89 44 26 359 4 357 339 342 346 340 339 340 338 337 337 337 335 328 321 316 313 313 314 314 309 304 300 297 296 294 290 292 292 291 292 288 285 290 299 303 304 302 298 293 286 281 276 270 268 266
44 27 2 343 325 330 329 5 17 353 330 321 335 2 333 320 327 309 304 320 315 292 277 283 284 282 286 137 146 170 160 136 116 107 96 93 86 49 5 356 12 352 345 351 346 343 344 343 339 332 329 330 329 323 318 315 314 314 315 315 313 307 301 297 293 292 294 303 310 312 308 298 287 285 288 292 297 297 296 297 292 278 271 270 270 271
73 357 357 331 305 348 350 8 23 358 334 333 7 23 326 316 318 298 300 312 306 284 271 281 292 290 253 145 159 169 141 114 111 121 118 101 78 54 4 3 18 357 352 352 347 346 341 335 330 325 323 323 321 319 317 314 311 312 315 317 315 310 304 300 298 299 308 316 317 313 309 304 299 293 284 277 284 291 292 296 298 291 286 280 276 280
69 26 0 322 326 20 7 359 20 12 339 326 15 5 324 312 308 297 301 312 314 301 307 42 314 299 286 172 173 150 142 135 136 152 134 91 45 37 5 0 14 358 348 346 346 343 333 328 327 324 321 318 313 314 317 314 311 313 318 318 313 310 312 316 317 316 317 317 314 310 307 304 301 296 290 283 278 278 281 286 290 292 293 292 289 290
14 17 349 324 351 28 10 353 6 15 352 309 323 338 318 308 305 298 303 313 306 295 303 335 285 292 308 295 153 141 153 148 143 160 139 85 31 23 1 356 9 352 336 340 347 339 331 331 331 326 323 318 314 320 324 321 321 324 324 321 315 316 323 326 323 320 318 315 310 306 303 301 298 294 292 291 287 277 271 274 279 282 284 287 288 289
341 6 1 347 15 31 9 349 346 1 6 295 305 326 314 307 301 291 297 297 268 290 294 299 356 330 310 331 114 140 151 150 155 170 134 62 23 9 352 342 349 340 331 341 342 334 332 335 335 331 328 326 327 332 331 326 327 327 324 321 320 323 325 321 317 316 314 309 304 301 300 297 293 291 290 292 292 286 276 271 271 274 276 279 281 281
276 17 4 340 12 32 356 329 325 336 329 277 296 313 304 299 293 285 286 273 266 296 283 311 13 353 305 324 110 147 148 154 154 127 66 29 7 357 350 340 339 337 334 339 334 332 335 336 336 334 332 332 334 336 334 331 331 327 324 323 322 323 321 315 314 317 317 313 310 307 304 299 293 290 291 292 292 290 285 275 269 270 270 271 274 275
172 54 8 309 23 42 329 316 312 314 293 281 295 301 295 293 289 284 277 267 280 268 256 344 11 348 299 311 319 131 122 140 110 76 45 13 359 357 351 341 341 336 328 328 326 329 336 337 336 336 336 335 333 332 332 332 331 329 328 327 324 323 319 313 314 320 321 319 317 313 307 304 300 296 293 290 288 287 287 281 274 271 269 270 272 272
94 43 159 56 11 276 317 318 313 311 293 291 304 305 305 303 293 294 316 329 308 262 314 5 359 328 300 312 9 68 163 175 60 41 22 6 358 352 343 334 336 329 319 320 320 329 337 337 337 340 340 335 330 330 329 330 333 336 335 330 325 324 322 316 317 323 324 321 318 314 310 307 304 302 298 293 288 284 283 280 277 272 269 269 269 269
72 28 353 356 295 297 354 334 330 332 309 308 323 319 324 322 309 326 345 338 312 299 338 348 337 315 291 276 130 178 191 158 102 52 5 351 348 348 347 342 338 331 324 323 323 332 337 337 339 342 339 333 329 328 327 329 337 341 337 330 325 325 322 315 317 324 325 322 319 314 312 308 304 301 297 294 291 287 284 281 279 275 268 265 264 268
48 131 173 265 271 331 10 335 329 338 333 349 345 332 342 342 341 345 335 338 320 302 316 330 327 308 282 293 141 175 172 144 122 149 167 344 348 349 351 347 339 336 333 332 333 334 334 335 338 340 336 332 329 324 323 332 341 339 334 330 324 321 318 313 319 326 324 318 314 312 311 309 305 300 296 294 290 287 285 281 281 279 273 269 268 269
0 164 172 331 285 349 34 2 345 334 342 4 347 338 4 348 334 331 324 329 308 298 309 318 314 299 305 310 168 168 145 146 191 190 202 350 354 352 350 346 343 344 341 338 335 332 333 333 334 336 335 330 324 321 327 340 342 335 330 326 317 314 315 317 326 329 324 317 310 306 307 307 305 301 298 296 291 287 284 281 280 281 278 273 271 269
333 281 282 6 297 331 46 77 80 311 326 8 345 342 24 351 312 308 309 312 301 300 308 308 299 316 328 300 160 132 139 172 202 249 343 352 354 351 348 350 350 346 341 335 328 326 331 330 330 334 331 323 322 328 336 338 332 327 324 321 318 317 322 328 333 330 323 318 312 305 304 304 303 301 299 297 294 291 289 286 280 275 272 271 270 269
345 289 288 354 354 21 51 146 152 306 318 359 342 357 21 320 286 265 275 285 295 296 300 301 287 310 323 320 122 131 196 202 330 350 351 352 352 349 348 349 347 339 332 327 322 325 330 326 326 328 323 321 329 336 335 328 324 323 323 324 324 324 328 332 332 326 320 317 312 306 303 301 300 299 298 298 297 294 294 292 284 274 269 269 271 270
349 284 301 321 341 116 172 171 136 319 307 333 340 6 303 287 270 272 286 287 292 289 290 301 292 305 319 315 140 173 294 342 353 351 352 351 348 346 344 341 337 331 327 325 326 329 328 323 322 322 323 330 337 334 329 324 322 322 326 327 323 324 329 330 329 329 326 323 319 313 307 302 299 297 297 299 299 298 298 296 292 284 274 269 271 270
125 281 291 298 304 255 174 107 97 301 318 356 325 301 290 281 237 84 305 302 304 293 289 302 305 311 314 306 13 352 344 351 349 346 347 347 346 341 337 335 331 328 326 327 331 329 325 323 321 322 329 334 332 327 324 322 323 326 328 324 320 324 330 331 333 335 332 327 323 319 316 312 310 308 308 308 305 304 303 299 295 287 276 272 271 269
39 294 278 271 346 322 141 89 66 295 0 84 180 253 305 299 309 346 318 307 312 307 302 308 308 307 294 315 354 351 349 351 344 340 340 341 345 339 334 334 330 328 330 331 332 327 324 326 324 325 330 331 327 322 320 323 325 326 323 319 321 326 328 331 334 333 330 326 321 319 319 318 317 315 314 312 307 304 301 299 295 286 276 275 273 267
347 290 272 302 330 314 259 94 337 286 40 87 164 187 86 122 265 289 281 283 302 305 308 312 310 314 37 349 353 354 353 348 338 336 340 341 343 339 334 333 330 331 334 331 328 326 327 328 326 327 331 327 322 319 321 324 323 321 319 320 321 322 324 329 332 332 328 323 319 316 315 316 316 313 309 306 304 301 299 298 297 288 279 276 273 270
307 257 279 311 317 314 312 96 310 102 68 349 279 286 46 66 237 243 261 262 287 301 309 311 304 311 41 7 2 359 349 342 338 340 343 342 341 338 334 333 333 334 331 328 326 326 327 326 324 326 329 323 317 318 322 321 317 315 314 312 310 312 321 326 327 327 322 318 315 311 309 311 314 311 304 299 296 295 294 295 295 291 282 275 272 274
341 272 284 303 311 321 346 160 248 120 114 282 278 246 134 138 301 315 311 305 299 296 295 295 293 296 39 29 6 358 343 340 344 344 342 339 337 334 332 334 335 331 326 325 325 325 324 324 322 322 323 317 312 317 323 319 313 310 308 305 303 307 315 320 320 319 317 315 312 307 306 309 311 310 305 297 292 289 288 288 288 288 282 274 270 272
31 282 271 282 295 317 357 48 53 88 93 78 252 148 142 157 131 326 308 314 315 300 294 291 285 283 54 29 357 349 342 341 346 346 340 336 333 332 333 335 333 325 321 322 324 322 322 323 321 319 318 314 313 318 321 316 311 306 303 300 295 299 310 315 315 314 312 311 308 305 305 306 307 307 304 299 292 289 286 283 283 284 280 274 272 273
59 269 282 289 297 312 343 29 23 76 85 39 236 125 138 162 146 196 257 307 310 298 303 303 286 285 22 14 346 343 344 343 347 345 338 334 332 332 332 331 327 321 320 322 322 321 321 322 320 319 317 315 317 320 318 314 310 304 300 295 292 299 311 315 314 314 312 310 308 307 305 304 304 303 302 300 297 293 289 282 278 276 275 275 275 275
340 285 322 323 325 332 338 349 339 327 6 311 295 107 114 130 122 237 262 305 288 283 301 303 288 289 334 349 339 342 346 346 344 341 338 334 330 330 330 327 323 320 322 322 321 321 322 321 320 320 320 320 321 322 318 313 309 306 303 299 299 307 314 315 316 315 314 312 312 311 307 303 301 301 301 302 300 297 294 289 282 275 272 271 271 272
308 287 355 9 339 333 325 316 315 314 315 311 304 331 127 128 111 128 290 303 292 290 293 282 279 295 319 335 335 340 347 344 341 340 339 333 328 329 328 324 323 323 322 322 321 322 323 324 325 326 324 323 322 322 319 315 312 310 308 305 308 316 319 319 317 315 315 315 312 309 304 300 299 299 299 298 297 299 302 304 301 295 289 284 280 277
289 294 29 32 324 294 289 289 299 305 302 302 308 316 353 136 119 96 332 297 301 301 292 275 286 302 317 331 334 341 347 342 339 340 337 331 329 329 326 324 325 324 322 322 324 327 329 330 330 327 324 322 322 322 320 318 317 316 316 318 320 321 318 316 315 315 316 314 310 305 301 300 300 299 296 293 295 300 305 307 307 305 302 297 292 287
308 293 50 1 313 282 279 285 289 291 294 303 310 311 304 146 137 115 294 300 314 315 302 308 315 314 318 331 339 346 346 342 341 339 333 329 327 326 325 325 324 325 328 330 333 334 333 331 328 325 323 323 324 324 323 324 325 326 326 324 319 315 313 314 316 317 316 313 309 305 302 302 300 296 295 297 300 302 303 303 301 299 297 295 292 289
235 257 14 335 300 291 293 291 289 292 300 305 303 301 306 68 108 306 292 307 324 313 301 312 318 316 318 332 345 347 343 341 339 333 328 326 325 324 325 325 326 332 335 335 335 334 331 328 327 326 324 323 323 327 332 333 331 327 322 316 313 312 313 315 316 317 316 312 309 306 302 301 300 301 305 306 304 302 299 297 295 292 291 290 289 287
147 301 333 314 285 294 297 293 301 310 309 305 300 303 338 6 351 332 318 314 310 294 296 308 311 309 318 336 344 344 340 335 333 329 327 327 327 326 325 327 333 337 335 333 332 330 328 327 326 325 324 323 328 338 341 335 326 320 316 315 315 315 314 315 316 319 317 311 307 307 307 308 310 312 312 309 304 301 299 298 298 299 298 296 291 287
81 328 322 315 293 299 297 299 313 314 307 303 305 343 12 357 354 341 322 320 317 307 308 312 309 308 326 341 339 340 336 330 330 331 329 328 327 325 326 333 338 335 333 332 330 328 328 326 325 327 329 333 338 337 332 326 322 318 316 318 318 316 315 316 319 322 317 309 308 313 317 318 316 311 308 306 304 301 299 300 304 305 304 300 293 287
355 318 310 329 321 300 308 325 322 314 307 304 326 20 6 348 346 335 319 325 326 317 316 317 315 315 330 336 336 336 333 329 331 333 330 326 324 325 330 337 335 331 331 331 329 329 329 328 329 333 336 335 331 327 323 322 322 320 320 320 318 315 316 319 320 321 318 312 311 317 319 315 309 306 307 307 305 303 304 307 307 305 301 295 290 285
1 326 316 348 324 293 311 325 318 311 311 315 36 39 9 344 334 327 319 319 318 315 317 320 320 327 335 337 334 332 333 332 331 332 328 323 323 327 333 334 329 328 328 327 327 329 329 330 329 327 327 327 326 325 323 320 322 326 324 319 316 318 321 322 321 319 317 314 312 312 311 308 306 309 312 311 309 309 310 309 306 302 297 293 288 282
352 326 310 350 309 292 310 319 316 317 326 334 79 60 26 0 343 329 319 317 317 319 323 320 323 333 338 335 328 326 330 332 329 327 324 324 327 329 329 328 326 326 326 326 327 329 329 330 328 328 329 328 328 328 323 319 323 327 323 317 318 323 324 322 319 316 314 313 310 308 308 310 313 315 314 312 310 309 307 304 302 300 297 292 288 281
349 339 312 279 273 288 308 326 334 332 331 127 123 66 26 9 347 325 311 309 314 322 328 331 333 335 332 326 321 321 322 324 324 323 321 324 329 328 327 326 326 327 326 327 329 331 332 331 329 329 328 326 327 327 324 323 328 325 321 321 327 327 323 319 318 316 314 312 312 313 314 316 316 315 313 311 309 306 303 302 301 299 296 291 287 282
357 348 315 281 284 304 326 346 328 304 305 91 108 38 15 3 346 326 312 308 316 329 339 339 334 330 324 319 319 319 319 319 318 316 317 323 328 330 329 326 327 328 327 327 330 333 334 330 326 326 326 326 328 327 322 325 329 325 322 326 328 325 321 319 317 316 315 316 316 316 315 316 315 314 313 311 308 305 303 302 300 298 296 292 288 285
27 14 351 322 281 304 318 314 290 289 299 57 89 7 11 352 339 330 314 309 317 345 351 339 328 324 321 319 320 320 320 318 315 314 321 325 327 329 328 324 325 325 324 326 329 331 332 329 325 325 327 328 329 326 322 324 327 325 324 326 325 322 320 318 317 317 317 318 316 315 314 315 315 314 312 310 307 305 303 302 301 298 295 290 287 287
102 102 73 13 280 315 318 311 312 310 312 86 56 341 15 348 331 326 309 302 332 9 352 337 326 324 324 322 322 323 322 319 316 320 327 327 327 328 326 323 324 324 324 328 331 331 332 332 328 326 327 327 326 326 325 325 326 325 324 325 324 321 319 319 319 319 319 318 316 314 315 316 315 313 311 308 306 304 304 303 299 295 293 288 285 285
295 246 132 172 281 314 329 315 313 306 303 304 305 322 355 346 329 322 305 296 6 4 344 333 325 323 323 321 322 325 324 318 315 320 326 326 327 327 326 324 325 326 328 331 332 331 332 333 329 326 326 326 325 326 327 328 327 325 323 323 321 320 320 320 320 320 320 318 316 315 316 316 314 312 308 306 304 304 302 300 297 294 291 285 281 281
297 300 339 299 282 304 322 308 282 274 289 296 299 321 343 337 325 321 310 315 346 347 339 332 323 319 321 322 322 323 321 316 314 316 320 321 321 322 323 323 325 327 329 332 333 333 333 333 331 328 327 328 327 327 328 329 327 325 323 321 320 320 320 320 320 320 318 316 315 316 316 314 311 309 307 305 304 304 301 298 296 294 290 287 287 283
321 327 324 267 271 303 312 296 286 285 278 279 303 333 343 330 324 324 315 318 332 335 333 328 319 317 320 321 319 317 314 312 310 310 314 317 319 320 321 322 323 325 327 330 333 334 335 334 332 328 327 327 327 328 329 328 326 324 322 320 319 320 321 321 320 318 317 316 316 316 314 312 309 307 306 304 303 302 300 297 295 294 294 294 291 283
331 340 311 291 290 299 287 287 301 294 237 312 329 345 5 343 327 317 310 316 325 326 324 321 316 315 317 316 314 312 310 310 309 309 313 317 318 319 321 322 324 325 327 331 333 335 337 336 332 328 326 327 328 329 330 328 325 323 320 319 319 321 322 321 319 318 318 318 317 315 313 310 309 308 306 304 303 301 300 299 299 299 298 296 289 279
319 328 317 311 316 316 300 301 309 295 310 342 340 347 26 350 316 306 313 320 323 321 319 317 314 314 314 313 312 311 311 312 312 313 316 316 316 318 321 323 324 324 328 332 333 333 335 336 332 328 326 328 330 329 329 327 324 321 320 319 321 322 321 320 320 320 319 318 315 314 313 311 311 310 307 304 304 302 300 301 305 307 306 305 302 298
199 188 307 307 69 23 321 290 269 283 305 335 346 337 334 326 314 316 321 320 320 321 318 314 312 312 313 313 313 313 313 314 315 315 317 316 317 319 321 323 324 325 328 333 333 331 333 335 333 329 327 328 329 328 327 326 323 320 320 320 323 323 321 321 322 321 319 317 315 315 314 313 313 312 308 306 306 306 304 304 309 312 312 314 317 315
183 173 253 293 227 193 247 257 272 289 303 333 353 327 319 317 319 327 323 316 318 318 315 312 310 311 313 313 314 314 314 315 315 314 315 316 317 319 320 322 325 327 330 332 332 332 332 332 331 329 327 328 329 327 325 325 323 320 320 322 324 324 322 323 323 320 318 317 316 316 315 314 313 313 311 311 311 310 308 309 313 315 315 318 320 318
132 34 35 316 274 266 257 265 286 301 312 330 334 322 314 316 326 331 323 315 314 312 310 311 309 310 314 316 316 316 316 316 316 314 314 316 316 317 320 322 325 329 331 332 332 332 331 331 332 330 326 326 327 326 324 324 323 321 321 323 324 324 323 323 321 319 319 319 317 317 317 316 316 316 316 317 318 316 311 311 313 313 313 315 317 316
77 40 59 282 292 299 292 291 305 316 321 327 327 322 323 325 327 328 320 314 312 310 309 309 309 311 314 315 317 317 315 316 316 315 315 317 316 318 321 324 327 330 332 333 333 331 330 332 334 332 327 325 325 324 323 323 323 323 324 325 325 324 323 322 321 320 320 320 319 319 319 318 319 319 321 322 323 320 315 313 314 312 311 313 315 317
137 209 238 288 296 290 289 301 314 319 318 321 323 324 328 327 324 324 320 315 312 310 311 312 313 314 315 315 316 316 314 315 317 317 317 319 319 321 324 325 328 330 331 333 333 331 330 333 335 332 327 325 324 324 323 322 323 325 326 325 325 325 323 322 322 321 320 320 320 320 319 319 319 319 321 322 322 320 317 315 315 312 309 310 312 313
321 302 305 313 304 291 293 309 323 321 315 318 325 324 324 323 321 320 317 314 313 313 314 315 314 314 315 316 316 316 315 315 317 319 321 321 322 324 326 327 329 329 331 333 333 330 329 334 336 332 327 324 325 325 323 322 324 326 327 327 326 326 323 322 323 323 322 322 321 320 320 320 319 319 319 319 319 318 315 314 313 309 306 309 314 313
343 319 331 329 313 303 304 315 326 322 312 315 323 323 321 320 318 315 315 316 318 317 315 315 315 316 317 318 319 319 317 316 320 323 322 322 325 327 327 327 329 329 331 333 332 328 328 335 336 333 328 325 326 326 324 324 325 327 328 329 328 327 324 324 324 324 323 323 322 322 322 321 320 320 320 318 318 318 316 316 316 309 303 311 321 322
350 306 335 314 296 296 303 311 320 314 303 308 316 317 317 317 316 315 317 319 318 317 317 319 320 320 319 319 321 321 318 319 323 324 324 326 327 326 327 330 331 330 331 333 331 329 330 337 338 334 330 327 327 326 325 326 327 328 328 329 330 328 327 326 325 323 322 322 321 321 321 321 319 319 319 319 319 319 318 319 322 320 313 316 325 329